www.pogodaiklimat.ru

Погода и климат >> Архив погоды >> Бельгия >> Флорен


ПОГОДА во Флорене

  • Прогноз погоды во Флорене
  • Монитор погоды во Флорене

АРХИВ ПОГОДЫ во Флорене

Время (UTC), дата Ветер
(напр.,м/с)
 
Видим.   Явления Облачность Т
(С)
Тd
(С)
f
(%)
Тe
(С)
Тes
(С)
Комфортность P
(гПа)
Po
(гПа)
Тmin
(С)
Tmax
(С)
R
(мм)
R24
(мм)
S
(см)
16 10.09 СЗ 3
{4}
20 км 1/1 1500 м
[Sc diur, vesp]
+18.1 +4.9 42 +18 +20 1018.8 985.6
17 10.09 СЗ 3
{4}
20 км 1/1 1500 м
[Sc diur, vesp]
+17.8 +5.5 44 +18 +18 1019.1 985.8
18 10.09 СЗ 2
{6}
20 км 1/0
[Ci fib]
+15.9 +5.8 51 +16 +16 1019.7 986.2 +19.8
19 10.09 СЗ 2
{3}
20 км 1/0
[Ci fib]
+14.7 +6.1 56 +15 +15 1020.7 987.0
20 10.09 СЗ 2
{3}
20 км 1/0
[Ci fib]
+13.5 +6.5 63 +13 +13 1021.5 987.6
21 10.09 нст 1
{3}
20 км 4/0
[Ci fib]
+12.8 +7.0 68 +13 +13 1022.0 988.1
22 10.09
{1}
20 км 6/4 1500 м
[Sc Ci fib]
+11.8 +7.6 75 1022.2 988.2
23 10.09
{1}
20 км н/о +11.4 +7.9 79 1022.2 988.0
00 11.09 нст 1
{3}
20 км н/о +10.7 +8.2 85 +10 +10 1022.2 988.1
01 11.09
{1}
20 км н/о +10.6 +8.0 84 1022.5 988.3
02 11.09
{1}
18 км н/о +9.8 +7.4 85 1022.2 987.9
03 11.09 нст 1
{1}
15 км н/о +9.6 +7.4 86 +9 +9 1022.5 988.1
04 11.09 З 2
{3}
20 км н/о +10.3 +7.9 85 +9 +9 1022.6 988.3
05 11.09
{3}
20 км 8/0
[Ac trans Ci fib]
+10.8 +7.8 82 1022.7 988.4
06 11.09 нст 1
{3}
20 км 8/0
[Ac trans]
+11.6 +7.9 78 +12 +12 1022.8 988.7 +9.5
07 11.09
{3}
20 км 8/0
[Ac trans]
+11.8 +8.0 78 1023.3 989.2
08 11.09 ЮЗ 3
{5}
20 км 9/0
[Ac trans]
+13.1 +9.8 80 +12 +13 1023.5 989.5
09 11.09 ЮЗ 3
{6}
7000 м слаб. дождь 10/6 240 м
[Sc Ac trans]
+13.3 +11.5 89 +12 +13 1024.0 990.1
10 11.09 ЮЗ 5
{7}
7000 м слаб. дождь 10/10 300 м
[Sc]
+14.5 +12.3 87 +13 +13 1024.0 990.2
11 11.09 Ю 5
{8}
12 км в посл. час дождь 10/5 360 м
[Cu Sc Ac trans]
+15.1 +11.5 79 +14 +15 1023.7 990.0
12 11.09 ЮЗ 7
{10}
12 км в посл. час дождь 10/5 600 м
[Cu Sc Ac trans]
+16.9 +11.3 70 +16 +16 1023.7 990.2 0.4
13 11.09 ЮЗ 6
{10}
12 км в посл. час дождь 10/5 750 м
[Cu Sc Ac trans]
+17.3 +10.3 63 +16 +17 1023.3 989.9
14 11.09 ЮЗ 6
{10}
12 км 9/9 1200 м
[Cu Sc]
+17.5 +8.8 57 +17 +17 1023.3 990.0
15 11.09 ЮЗ 6
{10}
15 км 9/9 750 м
[Cu Sc]
+17.5 +8.5 55 +17 +17 1023.6 990.1
16 11.09 ЮЗ 5
{10}
20 км н/о +18.1 +9.5 57 +18 +18 1023.7 990.3
17 11.09 ЮЗ 5
{9}
20 км н/о +18.0 +8.7 55 +18 +18 1023.7 990.4
18 11.09 Ю 4
{10}
20 км н/о +17.6 +8.7 56 +17 +17 1023.7 990.4 +18.8 0.4
19 11.09 ЮЗ 4
{7}
20 км н/о +17.4 +9.6 60 +17 +17 1024.5 991.0
20 11.09 ЮЗ 6
{9}
19 км н/о +17.1 +11.7 71 +16 +16 1025.2 991.6
21 11.09 ЮЗ 3
{12}
20 км н/о +16.2 +12.8 80 +16 +16 1025.7 992.0
22 11.09 ЮЗ 3
{5}
2500 м слаб. дождь {морось} н/о +15.1 +14.2 94 +14 +14 1025.7 992.0
23 11.09 ЮЗ 4
{7}
4700 м морось {дождь} н/о +15.1 +14.9 99 +14 +14 1025.9 992.2
00 12.09 ЮЗ 4
{12}
5000 м {дождь, морось} н/о +15.3 +15.0 98 +14 +14 1026.0 992.3 0.3
01 12.09 ЮЗ 5
{7}
1400 м дымка {дождь} н/о +15.6 +15.3 98 +14 +14 1026.5 992.9
02 12.09 Ю 4
{7}
1600 м слаб. морось {дождь} н/о +15.6 +15.3 98 +15 +15 1026.5 992.9
03 12.09 Ю 4
{7}
1900 м дымка {дождь} н/о +15.6 +15.4 99 +15 +15 1026.5 992.8
04 12.09 ЮЗ 4
{6}
2400 м морось {дождь} н/о +15.6 +15.5 99 +15 +15 1026.7 993.1
05 12.09 ЮЗ 3
{6}
4700 м морось {дождь} н/о +15.6 +15.5 99 +15 +15 1027.2 993.6
06 12.09 ЮЗ 4
{7}
2000 м в посл. час морось 10/10 120 м
[Frnb]
+15.9 +15.4 97 +15 +15 1027.9 994.2 +14.8 0.9
08 12.09 ЮЗ 5
{7}
15 км {дождь} 9/9 180 м
[Frnb]
+16.6 +15.6 94 +16 +16 1029.0 995.3
09 12.09 ЮЗ 6
{9}
15 км 9/9 180 м
[Cb calv Ac cast Ci fib]
+16.9 +15.0 89 +16 +16 1029.7 996.1
10 12.09 ЮЗ 6
{11}
15 км 9/9 360 м
[Cu Sc Ac trans]
+17.7 +14.4 81 +17 +17 1030.0 996.5
11 12.09 ЮЗ 7
{9}
15 км 5/5 630 м
[Cu Sc Ci fib]
+18.3 +13.5 74 +18 +19 1030.0 996.5
12 12.09 ЮЗ 7
{11}
15 км 5/5 900 м
[Cu Sc Ci fib]
+19.1 +12.8 67 +20 +21 1030.0 996.5 0.1
13 12.09 ЮЗ 6
{9}
20 км 3/3 900 м
[Cu Sc Ci fib]
+20.7 +13.2 62 +23 +25 комфорт 1029.7 996.5
14 12.09 ЮЗ 5
{9}
20 км 5/5 900 м
[Cu Sc Ci fib]
+21.6 +13.6 60 +24 +26 комфорт 1029.5 996.5
15 12.09 ЮЗ 6
{9}
20 км 8/8 900 м
[Cu Sc]
+20.7 +13.8 65 +23 +24 комфорт 1029.7 996.5
16 12.09 ЮЗ 5
{8}
20 км н/о +19.8 +14.7 72 +22 +22 комфорт 1029.7 996.4
17 12.09 ЮЗ 5
{7}
20 км н/о +19.7 +15.2 75 +22 +22 комфорт 1030.2 996.8
18 12.09 ЮЗ 3
{9}
20 км н/о +19.1 +15.4 79 +21 +21 комфорт 1030.5 997.1 +22.0 0.1
19 12.09 Ю 3
{4}
20 км н/о +18.3 +15.8 85 +19 +19 1030.9 997.3
20 12.09 Ю 3
{5}
20 км н/о +17.2 +16.0 93 +17 +17 1030.9 997.3
21 12.09 Ю 4
{7}
20 км н/о +16.7 +16.0 96 +16 +16 1030.9 997.2
22 12.09 ЮЗ 4
{7}
20 км н/о +17.1 +15.9 93 +17 +17 1031.2 997.6
23 12.09 ЮЗ 5
{7}
20 км н/о +16.7 +14.4 86 +16 +16 1031.2 997.4
00 13.09 ЮЗ 4
{8}
20 км н/о +15.6 +13.7 88 +15 +15 1031.2 997.4
01 13.09 ЮЗ 3
{6}
20 км н/о +15.1 +13.8 92 +14 +14 1031.4 997.5
02 13.09 З 5
{8}
20 км н/о +15.3 +14.0 92 +14 +14 1031.2 997.3
03 13.09 З 5
{8}
19 км н/о +15.2 +14.0 93 +14 +14 1031.4 997.4
04 13.09 ЮЗ 2
{6}
20 км н/о +15.1 +13.9 93 +15 +15 1031.4 997.5
05 13.09 ЮЗ 2
{4}
20 км 9/9 400 м
[Sc]
+15.3 +14.0 92 +15 +15 1031.7 997.7
06 13.09 З 2
{8}
20 км 9/9 270 м
[Sc]
+15.3 +14.0 92 +15 +15 1032.2 998.3 +15.0
07 13.09 З 2
{4}
20 км {морось} 9/9 300 м
[Sc]
+15.6 +14.2 91 +15 +16 1032.4 998.5
08 13.09 З 3
{4}
4000 м слаб. морось 9/9 180 м
[Sc]
+15.5 +14.8 96 +15 +15 1033.0 999.1
09 13.09 ЮЗ 3
{4}
2800 м слаб. морось 9/9 120 м
[Frnb]
+15.5 +15.1 97 +15 +15 1033.4 999.5
10 13.09 З 2
{4}
3800 м слаб. морось 9/9 120 м
[Frnb]
+15.9 +15.5 97 +16 +17 1033.4 999.5
11 13.09 З 2
{3}
4500 м дымка 9/9 150 м
[St]
+16.1 +15.4 96 +16 +17 1033.5 999.6
12 13.09 СЗ 2
{4}
3000 м слаб. морось 9/9 120 м
[St]
+16.3 +15.8 97 +16 +17 1033.5 999.8 0.2
13 13.09
{2}
20 км {морось} 9/9 150 м
[St]
+17.8 +16.6 93 1033.2 999.6
14 13.09
{3}
20 км 8/8 270 м
[Cu Sc]
+18.3 +16.0 86 1033.2 999.6
15 13.09 ЮВ 2
{4}
20 км 8/8 360 м
[Cu Sc]
+18.8 +16.3 85 +20 +21 1032.7 999.3
16 13.09
{3}
20 км н/о +19.2 +14.5 74 1032.5 999.1
17 13.09
{2}
20 км н/о +18.6 +15.2 81 1032.7 999.1
18 13.09 нст 1
{4}
20 км {дождь, морось} н/о +17.3 +14.4 83 +18 +18 1033.0 999.4 +19.6 0.2
19 13.09
{2}
15 км н/о +15.8 +14.2 90 1033.7 999.8
20 13.09 С 2
{3}
16 км н/о +15.9 +14.2 90 +16 +16 1033.7 999.8
21 13.09 С 3
{5}
20 км н/о +14.8 +12.7 87 +14 +14 1034.2 1000.2
22 13.09 С 3
{5}
20 км н/о +13.7 +12.0 89 +12 +12 1034.2 1000.1
23 13.09 С 2
{4}
20 км н/о +13.1 +11.6 91 +12 +12 1034.4 1000.1
00 14.09 С 2
{5}
20 км н/о +12.8 +11.5 92 +12 +12 1034.2 999.9
01 14.09
{3}
18 км н/о +12.5 +11.1 91 1034.0 999.7
02 14.09
{3}
12 км н/о +11.8 +10.8 94 1033.7 999.3
03 14.09 нст 1
{3}
9000 м н/о +11.6 +10.8 95 +11 +11 1033.5 999.1
04 14.09
{2}
5000 м н/о +10.8 +10.4 97 1033.5 998.9
05 14.09
{1}
6000 м н/о +10.6 +10.2 97 1033.7 999.1
06 14.09 нст 1
{3}
9000 м н/о +11.1 +10.2 94 +11 +11 1033.5 999.1 +10.5
07 14.09
{2}
10 км н/о +12.1 +11.0 93 1033.4 999.0
08 14.09
{2}
18 км н/о +14.2 +11.1 82 1033.2 999.1
09 14.09 СВ 2
{3}
20 км н/о +17.1 +11.6 70 +17 +17 1032.7 999.0
10 14.09 СВ 2
{4}
20 км н/о +18.0 +9.9 59 +19 +19 1032.5 998.8
11 14.09 С 2
{4}
20 км н/о +19.0 +10.4 57 +20 +20 1031.9 998.3
12 14.09 С 2
{4}
20 км н/о +20.4 +10.4 53 +23 +23 комфорт 1030.9 997.6
13 14.09 С 2
{5}
18 км н/о +21.0 +10.3 50 +23 +23 комфорт 1030.2 996.9
14 14.09 СВ 3
{5}
4000 м н/о +21.7 +10.6 49 +23 +23 комфорт 1029.7 996.5
15 14.09 С 3
{6}
20 км н/о +21.4 +9.1 45 +23 +23 комфорт 1029.0 995.9
16 14.09 СВ 2
{5}
20 км н/о +21.2 +9.1 46 +22 +22 комфорт 1028.4 995.2
17 14.09 С 2
{4}
20 км н/о +19.8 +9.3 51 +22 +22 комфорт 1028.5 995.2
18 14.09 С 3
{6}
20 км н/о +16.6 +9.7 64 +16 +16 1028.9 995.2 +22.1
19 14.09
{4}
20 км н/о +16.3 +8.9 62 1028.9 995.1
20 14.09
{2}
20 км н/о +15.3 +8.5 64 1028.5 994.7
21 14.09 С 2
{4}
20 км н/о +14.4 +8.2 66 +14 +14 1028.7 994.7
22 14.09
{2}
20 км н/о +14.3 +7.9 65 1028.2 994.3
23 14.09
{1}
20 км н/о +14.5 +7.5 63 1027.4 993.4
00 15.09 нст 1
{4}
20 км н/о +14.0 +8.5 69 +14 +14 1027.0 993.1
01 15.09
{1}
20 км н/о +12.0 +8.5 79 1027.0 992.8
02 15.09
{1}
20 км н/о +13.5 +9.5 77 1026.4 992.4
03 15.09 нст 1
{1}
20 км н/о +10.7 +8.5 86 +10 +10 1026.4 992.0
04 15.09
{1}
20 км н/о +11.5 +9.3 86 1026.0 991.8
05 15.09
{1}
20 км н/о +14.0 +10.5 79 1025.7 991.7
06 15.09 нст 1
{1}
20 км н/о +11.0 +9.4 90 +11 +11 1026.2 992.0 +10.0
07 15.09
{1}
20 км н/о +14.0 +12.0 88 1025.7 991.9
08 15.09 ЮЗ 2
{2}
20 км н/о +17.4 +11.6 69 +18 +18 1025.5 992.0
09 15.09 нст 1
{2}
20 км н/о +19.0 +9.2 53 +21 +21 комфорт 1025.2 991.9
10 15.09 З 2
{4}
20 км н/о +20.1 +9.9 52 +22 +22 комфорт 1025.2 992.0
11 15.09 З 2
{6}
20 км н/о +21.1 +8.1 43 +22 +22 комфорт 1024.7 991.7
12 15.09 нст 1
{6}
20 км н/о +22.0 +8.3 41 +23 +23 комфорт 1024.4 991.4
13 15.09
{4}
20 км н/о +22.4 +8.1 40 1023.7 990.8
14 15.09 ЮЗ 2
{4}
20 км н/о +22.4 +7.7 39 +23 +23 комфорт 1023.1 990.2
15 15.09 З 2
{5}
20 км н/о +22.8 +7.5 37 +24 +24 комфорт 1022.6 989.7
16 15.09 З 3
{5}
20 км н/о +22.3 +8.0 40 +23 +23 комфорт 1022.2 989.3
17 15.09 СЗ 2
{4}
20 км н/о +21.5 +8.7 44 +23 +23 комфорт 1022.2 989.2
18 15.09 СЗ 2
{5}
20 км н/о +19.0 +9.4 54 +20 +20 1022.7 989.5 +23.3
19 15.09
{2}
20 км н/о +15.2 +9.8 70 1023.2 989.6
20 15.09
{1}
20 км н/о +16.5 +9.5 63 1023.2 989.7
21 15.09 нст 1
{2}
20 км н/о +14.3 +9.0 70 +15 +15 1023.5 989.7
22 15.09
{2}
20 км н/о +15.0 +8.2 64 1023.3 989.6
23 15.09
{2}
20 км н/о +15.0 +8.5 65 1023.0 989.2
00 16.09 нст 1
{2}
20 км н/о +14.1 +8.9 71 +15 +15 1022.6 988.8
01 16.09
{1}
20 км н/о +12.2 +8.6 79 1022.8 988.8
02 16.09
{1}
20 км н/о +13.1 +8.6 74 1022.3 988.4
03 16.09 нст 1
{1}
20 км н/о +11.8 +8.7 81 +12 +12 1022.2 988.1
04 16.09
{1}
20 км н/о +11.6 +9.0 84 1021.6 987.5
05 16.09
{1}
20 км 8/0
[Ac trans Ci fib]
+13.1 +8.6 74 1021.2 987.4
06 16.09 нст 1
{1}
20 км 9/1 1350 м
[Sc Ac und]
+12.2 +9.2 82 +12 +12 1021.6 987.5 +10.1
07 16.09
{1}
20 км 9/8
[Sc Ac und]
+15.9 +8.4 61 1021.0 987.4
08 16.09
{3}
20 км 9/0
[Ac und]
+16.6 +9.3 62 1021.3 987.9
09 16.09 ЮЗ 3
{5}
20 км 9/1 1500 м
[Sc Ac und]
+18.2 +9.3 56 +19 +20 1021.1 987.8
10 16.09 ЮЗ 4
{5}
20 км 9/0
[Ac und]
+19.4 +8.9 51 +20 +24 1020.7 987.6
11 16.09 ЮЗ 4
{6}
20 км 9/0
[Ac und]
+20.8 +4.7 35 +22 +24 комфорт 1020.5 987.4
12 16.09 З 3
{6}
25 км 9/0
[Ac und]
+20.7 +8.2 45 +22 +25 комфорт 1020.3 987.4
13 16.09 З 3
{6}
25 км 9/0
[Ac und]
+19.8 +8.7 49 +21 +24 комфорт 1020.2 987.1
14 16.09 З 4
{7}
25 км 9/0
[Ac und Ci fib]
+19.5 +13.4 68 +21 +23 комфорт 1020.0 986.9
15 16.09 СЗ 4
{7}
25 км 9/9 750 м
[Cu Sc Ac und Ci fib]
+19.4 +13.9 70 +21 +21 комфорт 1020.1 987.0
16 16.09 З 2
{6}
15 км 9/9 750 м
[Cu Sc Ac und Ci fib]
+18.7 +14.2 75 +20 +20 1020.1 986.9
17 16.09 СЗ 2
{4}
15 км 9/9 660 м
[Cu Sc Ac und Ci fib]
+18.2 +14.4 78 +19 +19 1020.1 986.9
18 16.09 С 3
{8}
4000 м дождь 10/10 150 м
[Frnb]
+16.0 +15.4 96 +15 +15 1020.7 987.2 +21.2 0.1
19 16.09 С 3
{6}
3000 м дождь 10/10 150 м
[Frnb]
+15.6 +15.1 97 +15 +15 1021.0 987.5
20 16.09 С 2
{4}
3000 м в посл. час дождь 10/10 120 м
[Frnb]
+15.1 +14.7 97 +15 +15 1021.2 987.6
21 16.09 С 2
{6}
2000 м дымка {дождь} н/о +14.5 +14.2 98 +14 +14 1021.3 987.7
22 16.09 С 3
{5}
1800 м дымка {дождь} 10/10 90 м
[Frnb]
+13.6 +13.4 99 +12 +12 1021.8 988.1
23 16.09
{4}
5000 м дымка н/о +13.6 +13.3 98 1021.8 988.1
00 17.09 нст 1
{6}
4100 м дымка {дождь} н/о +13.3 +13.2 99 +13 +13 1021.7 988.0 0.3
01 17.09
{2}
4200 м дымка н/о +13.3 +13.1 99 1021.7 987.8
02 17.09 СЗ 2
{3}
2900 м дымка н/о +13.3 +13.0 98 +12 +12 1021.5 987.7
03 17.09 С 2
{6}
5000 м н/о +12.6 +12.0 96 +12 +12 1021.7 987.8
04 17.09
{3}
4900 м н/о +12.6 +12.0 96 1021.7 987.9
05 17.09 С 2
{3}
4000 м дымка 9/9 600 м
[Sc Ac trans Ci fib]
+12.5 +11.3 92 +12 +12 1022.0 988.0
06 17.09 нст 1
{6}
4500 м дымка 10/9 240 м
[Sc]
+12.3 +11.2 93 +12 +12 1022.2 988.3 +12.3 0.3
07 17.09 СЗ 2
{3}
4500 м дымка 10/9 210 м
[Sc]
+12.5 +11.3 92 +12 +12 1022.7 988.7
08 17.09 СЗ 2
{4}
15 км 9/9 240 м
[Sc]
+12.8 +11.3 91 +12 +12 1023.2 989.3
09 17.09 СЗ 3
{4}
20 км 6/5 480 м
[Cu Sc Ci fib]
+13.9 +9.3 74 +13 +15 1023.2 989.4
10 17.09 СЗ 3
{5}
20 км 8/5 840 м
[Cu Sc Ci fib]
+13.8 +7.6 66 +13 +16 1023.2 989.4
11 17.09 СЗ 3
{5}
20 км 6/4 840 м
[Sc Ci fib]
+15.0 +8.2 64 +14 +19 1023.1 989.3
12 17.09 СЗ 2
{7}
25 км 5/3 960 м
[Sc Ci fib]
+16.5 +8.0 57 +17 +23 1022.7 989.1
13 17.09 СЗ 4
{6}
25 км 5/3 1050 м
[Sc Ci fib]
+16.6 +7.6 55 +16 +20 1022.5 988.9
14 17.09 СЗ 3
{8}
20 км 6/4 1140 м
[Sc Ci fib]
+17.8 +7.6 51 +18 +21 1022.3 989.0

 

Местоположение метеостанции Флорен (Бельгия): широта 50.23 долгота 4.65 высота над уровнем моря 299 м.

В архиве по умолчанию представлена погода во Флорене за последнюю неделю. Архивные данные за месяц целиком и за предыдущие месяцы, начиная с января 2011 года, Вы можете получить, выбрав интересующий диапазон дат из раскрывающегося списка и нажав кнопку "Ввод!".


*Определитесь, кто Вы:
робот инопланетянин человек

Внимание! Время в таблицах - всемирное. Для получения местного времени необходимо прибавить поправку, которая равна 1 ч.

Смотрите также архив погоды в соседних городах и на ближайших метеорологических станциях:

Погода в Дурбе (Бельгия) (15 км)
Погода в Шарлеруа (Бельгия) (30 км)
Погода в Гумане (Бельгия) (43 км)
Погода в Эрнаже (Бельгия) (49 км)
Погода в Чарвилле (Франция) (50 км)
Погода в Сент-Губерте (Бельгия) (58 км)
Погода в Бовешене (Бельгия) (58 км)
Погода в Уккеле (Бельгия) (67 км)
Погода в Шьевре (Бельгия) (69 км)
Погода в Бьерсете (Бельгия) (73 км)

Пояснения к столбцам:

Ветер - указаны скорость ветра в м/с - средняя за 10 мин, порывы в срок и между сроками (в фигурных скобках) и направление, откуда дует ветер: С - северный, СВ - северо-восточный, В - восточный, ЮВ - юго-восточный, Ю - южный, ЮЗ - юго-западный, З - западный, СЗ - северо-западный.
Видимость - горизонтальная дальность видимости в метрах или километрах. При видимости от 1 до 10 км при отсутствии осадков обычно наблюдается дымка, при ухудшении видимости до 1 км и менее - туман. В сухую погоду видимость может ухудшаться дымом, пылью или мглою.
Явления - указаны атмосферные явления, наблюдавшиеся в срок или в последний час перед сроком; фигурными скобками обозначены явления, наблюдавшиеся между сроками (за 1-3 часа до срока); квадратными скобками обозначены град или гололедные отложения с указанием их диаметра в мм.
Облачность - указаны через наклонную черту общая и нижняя облачность в баллах и высота нижней границы облаков в метрах; квадратными скобками обозначены формы облаков: Ci - перистые, Cs - перисто-слоистые, Cc - перисто-кучевые, Ac - высококучевые, As - высокослоистые, Sc - слоисто-кучевые, Ns - слоисто-дождевые, Cu - кучевые, Cb - кучево-дождевые. Подробнее классификацию облаков см. в Атласе облаков (PDF).
T - Температура воздуха - температура, измеренная на высоте 2 м над землей.
Td - Температура точки росы - температура, при понижении до которой содержащийся в воздухе водяной пар достигнет насыщения.
f - Относительная влажность воздуха - влажноcть воздуха, измеренная на высоте 2 м над землей.
Te - Эффективная температура - температура, которую ощущает одетый по сезону человек в тени. Характеристика душности погоды. При расчете учитывается влияние влажности воздуха и скорости ветра на теплоощущения человека.
Tes - Эффективная температура на солнце - температура, которую ощущает человек, с поправкой на солнечный нагрев. Характеристика знойности погоды. Зависит от высоты солнца над горизонтом, облачности и скорости ветра. Ночью, в пасмурную погоду, а также при ветре 12 м/с и более поправка равна нулю.
P - Атмосферное давление - приведенное к уровню моря атмосферное давление.
Po - Атмосферное давление - измеренное на уровне метеостанции атмосферное давление.
Tmin - Минимальная температура - минимум температуры воздуха на высоте 2 м над землей.
Tmax - Максимальная температура - максимум температуры воздуха на высоте 2 м над землей.
R - Количество осадков - Количество выпавших осадков за период времени, мм. При наведении курсора мыши на число - период времени, за который выпало указанное количество осадков.
R24 - Количество осадков - Количество выпавших осадков за 24 часа, мм.
S - Снежный покров - Высота снежного покрова, см. При наведении курсора мыши на число - состояние снежного покрова и степень покрытия местности в баллах.